Regional Weather Roundup
Issued by NWS

Home | Current Version | Previous Version | Graphics & Text | Print | Product List | Glossary On
Versions: 1 2 3 4 5 6 7 8 9 10 11 12 13 14 15 16 17 18 19 20 21 22 23 24 25 26 27 28 29 30 31 32 33 34 35 36 37 38 39 40 41 42 43 44 45 46 47 48 49 50
000
ASUS43 KOAX 150810
RWRNE

WEATHER ROUNDUP FOR NEBRASKA
NATIONAL WEATHER SERVICE OMAHA NE
300 AM CDT MON SEP 15 2014

NOTES: SATELLITE DATA IS BEING USED TO AUGMENT CLOUD COVER ABOVE
       12000 FEET.
       "FAIR" INDICATES FEW OR NO CLOUDS BELOW 12,000 FEET WITH NO
       SIGNIFICANT WEATHER AND/OR OBSTRUCTIONS TO VISIBILITY.

  * THESE STATIONS DO NOT REPORT WEATHER SUCH AS RAIN...SNOW OR FOG.

NEZ001>004-019>022-054>056-150900-
NEBRASKA PANHANDLE

CITY           SKY/WX    TMP DP  RH WIND       PRES   REMARKS
SCOTTSBLUFF    CLEAR     44  40  85 CALM      30.25R
ALLIANCE       CLEAR     41  38  89 N6        30.23R
CHADRON        CLEAR     36  35  96 SW3       30.26R
KIMBALL        CLEAR     46  44  93 N10       30.21R
SIDNEY         CLOUDY    51  45  79 N17G23    30.20R
$$

NEZ057>060-069>072-079>082-150900-
SOUTHWEST NEBRASKA

CITY           SKY/WX    TMP DP  RH WIND       PRES   REMARKS
NORTH PLATTE   MOCLDY    55  52  89 N7        30.11R
IMPERIAL       MOCLDY    54  52  93 N8        30.11R
LEXINGTON      PTCLDY    55  52  90 NW5       30.06R
MCCOOK         PTCLDY    54  52  93 N7        30.04R
OGALLALA       CLOUDY    55  52  89 N14       30.14R
$$

NEZ005>010-023>029-035>040-094-150900-
NORTH CENTRAL NEBRASKA

CITY           SKY/WX    TMP DP  RH WIND       PRES   REMARKS
VALENTINE      CLOUDY    50  39  66 N10       30.21R
AINSWORTH      CLOUDY    49  40  73 N10       30.19R
BROKEN BOW     PTCLDY    54  52  93 N12       30.09R
O`NEILL        CLOUDY    51  48  87 N13       30.15R
ORD            PTCLDY    53  52  96 NW6       30.08R
THEDFORD       CLOUDY    50  44  78 N8        30.19R
$$

NEZ041-046>049-061>064-073>077-083>087-150900-
SOUTH CENTRAL NEBRASKA

CITY           SKY/WX    TMP DP  RH WIND       PRES   REMARKS
GRAND ISLAND   FAIR      59  54  83 E7        30.04S
AURORA         PTCLDY    58  56  92 E5        30.04R
HASTINGS       PTCLDY    57  53  86 NE8       30.02S
HEBRON         PTCLDY    59  55  87 NE5       30.00R
HOLDREGE       PTCLDY    55  52  90 CALM      30.02R
KEARNEY *      PTCLDY    55  52  88 N9        30.03F
YORK           CLOUDY    59  59 100 NE9       30.04F
$$

NEZ011>018-030>034-042>045-150900-
NORTHEAST NEBRASKA

CITY           SKY/WX    TMP DP  RH WIND       PRES   REMARKS
NORFOLK        PTCLDY    52  50  93 CALM      30.06S
ALBION         PTCLDY    53  50  91 NW7       30.08R
BLAIR          CLOUDY    61  57  87 E5        30.05F
COLUMBUS *     MOCLDY    61  54  77 E5        30.04S
FREMONT        LGT RAIN  62  56  82 SE10      30.03F
TEKAMAH        CLOUDY    60  57  89 CALM      30.06S
WAYNE          PTCLDY    50  49  97 N5        30.08F
$$

NEZ050>053-065>068-078-088>093-150900-
SOUTHEAST NEBRASKA

CITY           SKY/WX    TMP DP  RH WIND       PRES   REMARKS
LINCOLN        CLOUDY    61  57  87 NE6       30.04F
OMAHA EPPLEY   CLOUDY    62  57  83 E10       30.05F
BEATRICE       PTCLDY    62  58  86 E3        30.01F
FALLS CITY     CLOUDY    64  59  83 SE5       30.02S
NEBRASKA CITY  MOCLDY    63  53  72 E5        30.02F
PLATTSMOUTH    CLOUDY    59  56  91 E3        30.04F
$$

NEZ044-045-051>053-067-150900-
OMAHA AREA

CITY           SKY/WX    TMP DP  RH WIND       PRES   REMARKS
OMAHA EPPLEY   CLOUDY    62  57  83 E10       30.05F
BLAIR          CLOUDY    61  57  87 E5        30.05F
FREMONT        LGT RAIN  62  56  82 SE10      30.03F
OFFUTT AFB     CLOUDY    60  60 100 NE7       30.05R
PLATTSMOUTH    CLOUDY    59  56  91 E3        30.04F
WAHOO          RAIN      60  56  86 SE5       30.05S
$$



USA.gov is the U.S. government's official web portal to all federal, state and local government web resources and services.